STARLINK-37734, 69305

Orbit data source: Space-Track

STARLINK-37734, 69305 is a payload satellite owned by SpaceX/Seattle (US) in SSO that was launched on Sat, 30 May 2026 UTC via an FALCON 9 launch vehicle from the Air Force Western Test Range (AFWTR). Payload-class satellites include a variety of spacecraft equipped with specific instruments for various scientific and technological missions. These include communications satellites like Starlink; space stations such as the ISS; scientific satellites like the Hubble; Earth observation satellites from companies like Planet Labs, Umbra, and HawkEye 360; GPS; miniature CubeSats for education and research; and military/defense satellites.

Loading next visibility...
Identifier
69305, 2026-119K
Orbit
SSO
Country
Flag of USUS
Related business
Manufacturer
SpaceX/Seattle
Mission
Operational spacecraft
Bus & Motor
STARLINK V2MO, Unknown motor
Mass
575 kg wet, ~530 kg dry
Launch date (UTC)
2026-05-30 (2 months ago)
Launch vehicle
FALCON 9
Launch site
Air Force Western Test Range (AFWTR)
Object type
Payload
Rocket body
Debris
Shape & HBR
BOX + PAN, 17.7 m
Radar Cross Section
Large (>1 m²)

Expand to show TLE details & history
Last TLE update: 11 hours ago

TLE from 11 hours ago
0 STARLINK-37734
1 69305U 26119K   26206.53815897  .00017475  00000-0  54218-3 0  9991
2 69305  97.2827 232.0821 0001753  77.0732 283.0706 15.33454181  9932
Epoch: 2026-07-25T12:54Z
TLE epoch observation values (Epoch: 2026-07-25T12:54:56.935Z)
Latitude
-0.00004°
Longitude
95.09587°
Altitude
468.357 km
Speed
7.632 km/s
True Right ascension
15h 28m 19s
True Declination
0° 00' 00"
Sunlit
Object was in daylight at epoch
Visualization orbit readout
Latitude
Unknown
Longitude
Unknown
Altitude
Unknown
Speed
Unknown
Apparent Right ascension
Unknown
Apparent Declination
Unknown
Sunlit
N/A
Visualization observer readout
Local Sidereal Time
13:35:39
Azimuth
Unknown
Elevation
Unknown
Doppler factor
Unknown
Orbital elements
Apogee altitude
463.658 km
Perigee altitude
461.259 km
Semi-major axis
6,840.596 km
Eccentricity
0.00018
Inclination
97.2827°
RAAN
232.0821°
Arg. of periapsis
77.0732°
True anomaly
283.05103°
Mean anomaly
283.0706°
Eccentric anomaly
283.06082°
Mean motion
3.83621 °/min
Orbital period
93.84 mins
BSTAR
0.00054218
Loading maneuver chart data...
Computing Atmospheric mass density...
Loading historical data...
Loading historical data...
Loading historical data...
Loading historical data...
Loading historical data...
Loading historical data...
Loading historical data...

Documentation

Showing up to 5 results
|